[[{"header":{"parameterUnit":"m.s-1","parameterCategory":1,"la1":30.2991,"la2":30.254,"lo1":-89.0895,"lo2":-89.0444,"dy":0.0017,"dx":0.0017,"nx":28,"ny":28,"refTime":"2024-10-03T21:00:00:Z","depth":0,"parameterNumber":2,"parameterNumberName":"U-component_of_WINDS"},"data":[0,0,0,0,0,0,0,0,0,0,0,0,0,0,0,0,0,0,0,0,0,0,0,0,0,0,0,0,0,0,0,0,0,0,0,0,0,0,0,0,0,0,0,0,0,0,0,0,0,0,0,0,0,0,0,0,0,0,-2.7013,-2.7012,0,-2.6977,-2.6976,-2.6976,-2.6875,-2.6873,-2.6871,-2.6869,-2.6835,-2.6836,-2.6837,0,0,0,0,0,0,0,0,0,0,0,0,0,-2.6998,-2.6999,-2.7013,-2.7012,-2.7012,-2.6977,-2.6976,-2.6976,-2.6876,-2.6873,-2.687,-2.6868,-2.6834,-2.6836,-2.6837,0,0,0,0,0,0,0,0,0,0,0,0,0,-2.6988,-2.6999,-2.7013,-2.6958,-2.6952,-2.6977,-2.6976,-2.6975,-2.6876,-2.6873,-2.687,-2.6867,-2.6834,-2.6835,-2.6837,-2.6913,0,0,-2.6842,-2.6843,0,0,0,0,0,0,0,0,-2.6988,-2.6988,-2.6966,-2.6961,-2.6956,-2.6927,-2.6958,-2.6955,-2.6877,-2.6905,-2.6869,-2.6865,-2.6868,-2.6867,-2.6867,-2.6911,-2.691,-2.6842,-2.6843,-2.6844,-2.6845,0,0,0,0,0,0,0,-2.6989,-2.6989,-2.6998,-2.6966,-2.696,-2.6936,-2.693,-2.6957,-2.6906,-2.6902,-2.6895,-2.6892,-2.6865,-2.6866,-2.6866,-2.6909,-2.6842,-2.6844,-2.6845,-2.6845,-2.7013,-2.7016,0,0,0,0,0,0,-2.6997,-2.699,-2.7,-2.6997,-2.6964,-2.6939,-2.6933,-2.694,-2.6905,-2.6896,-2.6895,-2.6887,-2.6865,-2.6864,-2.6864,-2.695,-2.6844,-2.6846,-2.6847,-2.701,-2.7014,-2.7018,0,0,0,0,0,0,-2.6997,-2.6999,-2.7001,-2.6992,-2.699,-2.6942,-2.6951,-2.6941,-2.6941,-2.6899,-2.689,-2.6905,-2.6862,-2.6862,-2.6901,-2.6947,-2.6846,-2.6848,-2.7006,-2.7011,-2.7016,-2.7122,0,0,0,0,0,0,-2.6997,-2.7,-2.7027,-2.6993,-2.6991,-2.7038,-2.6953,-2.6942,-2.6944,-2.6934,-2.6907,-2.6899,-2.6859,-2.6899,-2.6903,-2.6948,-2.6849,-2.7001,-2.7008,-2.7014,-2.7114,-2.713,-2.7144,0,0,0,0,0,-2.6997,-2.706,-2.7029,-2.7031,-2.7025,-2.7041,-2.704,-2.6992,-2.6949,-2.6976,-2.6949,-2.69,-2.6942,-2.6904,-2.6907,-2.6953,-2.6998,-2.7006,-2.7014,-2.7107,-2.7127,-2.7144,0,0,0,0,0,0,-2.7101,-2.7054,-2.702,-2.7073,-2.7062,-2.7024,-2.7057,-2.7015,-2.7016,-2.7007,-2.6949,-2.6944,-2.6991,-2.6976,-2.6935,-2.7025,-2.6962,-2.6971,-2.7032,-2.705,-2.7065,-2.7067,-2.6851,0,0,0,0,0,-2.713,-2.7147,-2.7105,-2.7156,-2.7152,-2.7106,-2.7111,-2.7076,-2.7062,-2.7057,-2.7033,-2.7022,-2.7033,-2.7041,-2.7049,-2.7112,-2.7104,-2.7146,-2.716,-2.7173,-2.7181,-2.7212,-2.723,-2.7043,-2.7043,-2.7043,0,0,-2.719,-2.7167,-2.7181,-2.7176,-2.7163,-2.7182,-2.7102,-2.7126,-2.7139,-2.7061,-2.7096,-2.7078,-2.7062,-2.7114,-2.7136,-2.7103,-2.7231,-2.7183,-2.7193,-2.7194,-2.7222,-2.724,-2.7256,-2.7048,-2.7047,-2.7047,0,0,-2.7309,-2.7293,-2.7333,-2.7322,-2.7303,-2.7272,-2.7282,-2.7251,-2.7235,-2.727,-2.7211,-2.7227,-2.7247,-2.7238,-2.7236,-2.7352,-2.7307,-2.7357,-2.7434,-2.7465,-2.748,-2.7493,-2.7533,-2.7549,-2.7365,-2.7365,-2.7365,0,-2.7386,-2.7411,-2.7359,-2.7386,-2.7386,-2.7315,-2.7355,-2.7347,-2.7333,-2.7334,-2.7298,-2.7321,-2.7306,-2.7354,-2.7382,-2.7384,-2.7393,-2.7359,-2.7482,-2.7494,-2.7506,-2.7543,-2.7559,-2.7371,-2.7371,-2.737,-2.7369,0,-2.7507,-2.7525,-2.756,-2.7546,-2.755,-2.7584,-2.7538,-2.7548,-2.7513,-2.7486,-2.7522,-2.7501,-2.7503,-2.7512,-2.7479,-2.7556,-2.7536,-2.7492,-2.7428,-2.753,-2.7565,-2.7579,-2.738,-2.7378,-2.7376,-2.7375,0,0,-2.7689,-2.7646,-2.7659,-2.7652,-2.7626,-2.764,-2.7671,-2.7672,-2.7681,-2.7674,-2.7698,-2.7717,-2.7676,-2.7674,-2.7639,-2.7667,-2.776,-2.7619,-2.7618,-2.7645,-2.7843,-2.7875,-2.7892,-2.773,-2.7733,-2.7735,-2.7843,0,-2.78,-2.7848,-2.7803,-2.7861,-2.7877,-2.7811,-2.7837,-2.7825,-2.7802,-2.7813,-2.7787,-2.7801,-2.7746,-2.7744,-2.7769,-2.7743,-2.7798,-2.7735,-2.7752,-2.7753,-2.7756,-2.791,-2.7944,-2.8048,-2.7857,-2.7859,-2.7861,0,-2.7935,-2.7933,-2.7992,-2.7962,-2.7967,-2.7992,-2.7989,-2.8001,-2.7986,-2.7967,-2.7965,-2.7922,-2.7951,-2.7889,-2.7928,-2.7886,-2.7891,-2.7879,-2.7882,-2.788,-2.7812,-2.7912,-2.808,-2.8095,-2.7882,-2.788,-2.7879,0,-2.806,-2.8072,-2.8109,-2.8105,-2.8071,-2.809,-2.8078,-2.8059,-2.8063,-2.8061,-2.8062,-2.8065,-2.8066,-2.8069,-2.8028,-2.7987,-2.8072,-2.8007,-2.8056,-2.8058,-2.8076,-2.8075,-2.8246,-2.8082,-2.8082,-2.8082,-2.8081,0,-2.8188,-2.8227,-2.8164,-2.8187,-2.8228,-2.8177,-2.8219,-2.82,-2.8184,-2.8202,-2.8146,-2.8165,-2.811,-2.8123,-2.8092,-2.8128,-2.813,-2.8115,-2.8106,-2.8119,-2.8121,-2.812,-2.8111,-2.8086,-2.8085,-2.8084,-2.8083,0,-2.8334,-2.8294,-2.8329,-2.8295,-2.8287,-2.8319,-2.8289,-2.8309,-2.8282,-2.8306,-2.8308,-2.8266,-2.8279,-2.8238,-2.8245,-2.8223,-2.8277,-2.8257,-2.8281,-2.8275,-2.8326,-2.8321,-2.8501,-2.8521,-2.8346,-2.8348,-2.835,0,-2.8417,-2.8445,-2.8413,-2.842,-2.841,-2.8423,-2.8426,-2.8377,-2.8382,-2.8368,-2.8389,-2.8397,-2.84,-2.8423,-2.8393,-2.8398,-2.8376,-2.8439,-2.8377,-2.8389,-2.8376,-2.8374,-2.8376,-2.8452,-2.8454,-2.8456,-2.8457,0,-2.8569,-2.8547,-2.8553,-2.8552,-2.8557,-2.8554,-2.8547,-2.8557,-2.8504,-2.8513,-2.8525,-2.8527,-2.8533,-2.8541,-2.8539,-2.8527,-2.8483,-2.8477,-2.8489,-2.8501,-2.8514,-2.8506,-2.8315,-2.8473,-2.8471,-2.847,-2.8469,-2.8469,-2.8684,-2.8706,-2.8686,-2.8695,-2.8684,-2.868,-2.8696,-2.8671,-2.8679,-2.8679,-2.865,-2.8667,-2.8652,-2.8645,-2.8637,-2.865,-2.8621,-2.8638,-2.8642,-2.8646,-2.8654,-2.8513,-2.865,-2.8649,-2.8649,-2.8648,-2.8648,0,-2.8832,-2.8816,-2.8824,-2.8816,-2.8823,-2.8781,-2.8772,-2.878,-2.8795,-2.8784,-2.8788,-2.8802,-2.8809,-2.8781,-2.8784,-2.88,-2.8781,-2.8803,-2.88,-2.8798,-2.8681,-2.867,-2.8819,-2.8819,-2.8819,-2.8819,-2.8819,-2.8819,-2.8909,-2.8942,-2.8919,-2.8947,-2.8931,-2.8947,-2.8945,-2.894,-2.8931,-2.8948,-2.8953,-2.8934,-2.8916,-2.8918,-2.8924,-2.8915,-2.8919,-2.8948,-2.8932,-2.8823,-2.8806,-2.879,-2.878,-2.8949,-2.895,-2.9048,-2.9049,-2.905]},{"header":{"parameterUnit":"m.s-1","parameterCategory":1,"la1":30.2991,"la2":30.254,"lo1":-89.0895,"lo2":-89.0444,"dy":0.0017,"dx":0.0017,"nx":28,"ny":28,"refTime":"2024-10-03T21:00:00:Z","depth":0,"parameterNumber":3,"parameterNumberName":"V-component_of_WINDS"},"data":[0,0,0,0,0,0,0,0,0,0,0,0,0,0,0,0,0,0,0,0,0,0,0,0,0,0,0,0,0,0,0,0,0,0,0,0,0,0,0,0,0,0,0,0,0,0,0,0,0,0,0,0,0,0,0,0,0,0,-1.4716,-1.4716,0,-1.4716,-1.4716,-1.4716,-1.4734,-1.4734,-1.4735,-1.4735,-1.4732,-1.4732,-1.4731,0,0,0,0,0,0,0,0,0,0,0,0,0,-1.4727,-1.4726,-1.4716,-1.4716,-1.4716,-1.4716,-1.4716,-1.4716,-1.4734,-1.4734,-1.4735,-1.4735,-1.4732,-1.4732,-1.4731,0,0,0,0,0,0,0,0,0,0,0,0,0,-1.4724,-1.4726,-1.4716,-1.4725,-1.4726,-1.4716,-1.4716,-1.4716,-1.4734,-1.4734,-1.4735,-1.4736,-1.4733,-1.4732,-1.4731,-1.4712,0,0,-1.4729,-1.4728,0,0,0,0,0,0,0,0,-1.4724,-1.4723,-1.4724,-1.4725,-1.4726,-1.4726,-1.4719,-1.4715,-1.4733,-1.4731,-1.4735,-1.4736,-1.4729,-1.4729,-1.4727,-1.4712,-1.4712,-1.4729,-1.4728,-1.4728,-1.4728,0,0,0,0,0,0,0,-1.4724,-1.4723,-1.4716,-1.4724,-1.4725,-1.4727,-1.4728,-1.4718,-1.4726,-1.4731,-1.4732,-1.4732,-1.473,-1.4728,-1.4727,-1.4712,-1.4729,-1.4728,-1.4728,-1.4727,-1.4675,-1.4674,0,0,0,0,0,0,-1.4724,-1.4724,-1.4716,-1.4716,-1.4727,-1.4727,-1.4727,-1.4725,-1.4726,-1.4727,-1.4732,-1.4733,-1.4729,-1.4728,-1.4727,-1.4701,-1.4728,-1.4727,-1.4727,-1.4676,-1.4675,-1.4674,0,0,0,0,0,0,-1.4724,-1.4723,-1.4716,-1.472,-1.472,-1.4726,-1.4723,-1.4725,-1.4723,-1.4727,-1.4728,-1.4728,-1.4729,-1.4728,-1.4715,-1.4702,-1.4727,-1.4726,-1.4677,-1.4676,-1.4674,-1.4651,0,0,0,0,0,0,-1.4724,-1.4723,-1.4717,-1.472,-1.4719,-1.4705,-1.4723,-1.4724,-1.4722,-1.4723,-1.4724,-1.4725,-1.473,-1.4716,-1.4714,-1.4701,-1.4725,-1.4678,-1.4676,-1.4675,-1.4653,-1.4649,-1.4646,0,0,0,0,0,-1.4724,-1.4711,-1.4717,-1.4716,-1.4713,-1.4705,-1.4704,-1.4711,-1.4721,-1.4714,-1.4715,-1.4725,-1.4704,-1.4714,-1.4712,-1.4699,-1.4679,-1.4677,-1.4675,-1.4655,-1.465,-1.4646,0,0,0,0,0,0,-1.4707,-1.4712,-1.4718,-1.4706,-1.4705,-1.4708,-1.47,-1.4707,-1.4702,-1.4704,-1.4712,-1.4712,-1.4696,-1.4696,-1.4708,-1.4678,-1.4693,-1.469,-1.4678,-1.4674,-1.467,-1.4669,-1.4725,0,0,0,0,0,-1.4702,-1.4697,-1.4701,-1.4689,-1.4688,-1.4694,-1.4691,-1.4696,-1.4695,-1.4694,-1.4695,-1.4692,-1.4684,-1.4679,-1.4673,-1.4654,-1.4651,-1.4643,-1.4639,-1.4636,-1.4634,-1.4618,-1.4613,-1.4667,-1.4667,-1.4667,0,0,-1.4692,-1.4693,-1.469,-1.4686,-1.4686,-1.4677,-1.4693,-1.4685,-1.4678,-1.4693,-1.4679,-1.4679,-1.4676,-1.4658,-1.4651,-1.4658,-1.4618,-1.4634,-1.4631,-1.463,-1.4616,-1.4611,-1.4606,-1.4666,-1.4666,-1.4666,0,0,-1.4667,-1.467,-1.4659,-1.4657,-1.4656,-1.4659,-1.4656,-1.4657,-1.4657,-1.4644,-1.4653,-1.4644,-1.4632,-1.4628,-1.4624,-1.4594,-1.46,-1.4591,-1.4572,-1.4557,-1.4553,-1.4549,-1.4534,-1.4529,-1.4589,-1.4589,-1.4589,0,-1.4654,-1.4644,-1.4652,-1.4642,-1.4638,-1.465,-1.4637,-1.4635,-1.4631,-1.4627,-1.4636,-1.4617,-1.4617,-1.4596,-1.4588,-1.4586,-1.458,-1.4591,-1.4553,-1.4549,-1.4546,-1.4531,-1.4526,-1.4587,-1.4588,-1.4588,-1.4588,0,-1.4625,-1.4617,-1.4608,-1.4604,-1.4599,-1.4588,-1.4591,-1.4585,-1.459,-1.4591,-1.4574,-1.4573,-1.4564,-1.456,-1.4565,-1.4538,-1.4542,-1.4552,-1.4567,-1.4539,-1.4526,-1.4521,-1.4585,-1.4586,-1.4586,-1.4587,0,0,-1.4593,-1.459,-1.4586,-1.4582,-1.458,-1.4573,-1.456,-1.4551,-1.4544,-1.454,-1.4527,-1.4514,-1.4521,-1.4517,-1.4521,-1.4508,-1.4478,-1.4519,-1.4519,-1.4508,-1.4443,-1.4434,-1.4428,-1.4483,-1.4482,-1.4482,-1.4442,0,-1.4567,-1.4546,-1.4551,-1.4529,-1.4519,-1.4528,-1.4516,-1.4512,-1.4511,-1.4501,-1.45,-1.449,-1.4502,-1.4499,-1.4487,-1.4485,-1.4465,-1.4488,-1.4468,-1.4467,-1.4466,-1.4422,-1.4414,-1.4377,-1.4438,-1.4437,-1.4436,0,-1.4535,-1.4528,-1.4505,-1.45,-1.4496,-1.4485,-1.4475,-1.4466,-1.446,-1.446,-1.4453,-1.4458,-1.4441,-1.4457,-1.4432,-1.4447,-1.4439,-1.4436,-1.4435,-1.4431,-1.4449,-1.4414,-1.4366,-1.4359,-1.4429,-1.4429,-1.443,0,-1.451,-1.4495,-1.4478,-1.4475,-1.4469,-1.446,-1.4457,-1.4451,-1.4444,-1.4434,-1.4429,-1.4418,-1.4411,-1.44,-1.4401,-1.4413,-1.4373,-1.4391,-1.437,-1.437,-1.4361,-1.4361,-1.4307,-1.436,-1.436,-1.436,-1.436,0,-1.4479,-1.4464,-1.4466,-1.4455,-1.4436,-1.4441,-1.4421,-1.4419,-1.4413,-1.4399,-1.4407,-1.4394,-1.4396,-1.4382,-1.4382,-1.4358,-1.4356,-1.4353,-1.4353,-1.4351,-1.4351,-1.4345,-1.4346,-1.4358,-1.4359,-1.4359,-1.4359,0,-1.4448,-1.4449,-1.4431,-1.4425,-1.4423,-1.4409,-1.4403,-1.4391,-1.439,-1.4373,-1.4369,-1.4367,-1.435,-1.4349,-1.4331,-1.433,-1.43,-1.4304,-1.4302,-1.4302,-1.428,-1.4281,-1.4218,-1.4208,-1.427,-1.427,-1.4269,0,-1.4428,-1.4416,-1.4408,-1.44,-1.4396,-1.4383,-1.4374,-1.4376,-1.4367,-1.4355,-1.4344,-1.4328,-1.4315,-1.4286,-1.4282,-1.4266,-1.4267,-1.4246,-1.4265,-1.4262,-1.4262,-1.4262,-1.4258,-1.4242,-1.4241,-1.4241,-1.4241,0,-1.4391,-1.4391,-1.438,-1.4367,-1.4356,-1.4346,-1.4337,-1.4329,-1.4329,-1.4318,-1.43,-1.429,-1.4269,-1.4251,-1.4234,-1.4228,-1.4232,-1.4234,-1.4228,-1.4225,-1.4223,-1.4219,-1.4289,-1.4236,-1.4236,-1.4237,-1.4237,-1.4237,-1.4363,-1.4351,-1.4342,-1.4327,-1.432,-1.4309,-1.4296,-1.4292,-1.4278,-1.4261,-1.4262,-1.4242,-1.423,-1.4208,-1.42,-1.4182,-1.4189,-1.4181,-1.4178,-1.4175,-1.4171,-1.4227,-1.4179,-1.4179,-1.4179,-1.418,-1.418,0,-1.4324,-1.4317,-1.4304,-1.4289,-1.4276,-1.4282,-1.427,-1.4258,-1.424,-1.4229,-1.4215,-1.4191,-1.4173,-1.4165,-1.4145,-1.4132,-1.4133,-1.4126,-1.4126,-1.4123,-1.4168,-1.4174,-1.4125,-1.4125,-1.4125,-1.4125,-1.4125,-1.4125,-1.4302,-1.428,-1.4277,-1.425,-1.4243,-1.4223,-1.4215,-1.4203,-1.4194,-1.4168,-1.4152,-1.4147,-1.4135,-1.4114,-1.4095,-1.4093,-1.4084,-1.4076,-1.4074,-1.4116,-1.4121,-1.4126,-1.4131,-1.4075,-1.4075,-1.403,-1.403,-1.4029]}]]